GEESAT 3-09

导读

GEESAT 3-09是中国于北京时间2024年9月5日8时成功发射的低轨商业通信卫星,隶属于吉利未来出行星座体系。该卫星由中国民企时空道宇研制,属于GEESATCOM星座组网批次卫星,其成功入轨标志着GEESATCOM完成近半数部署,同步开启全球商业卫星通信服务,将为未来智能移动出行提供天地一体化通信支撑。

基本信息
目录编号:
61019
目录名称:
GEESAT 3-09
国际标识:
2024-159J
轨道中心:
EARTH
卫星名称:
GEESAT 3-09
卫星全名:
GEESAT 3-09
卫星状态:
在轨 (已飞行736 天)
发射日期:
2024-09-05 UTC
国别 :
中国 (CN)
星等 :
--
该卫星已列入 空间交会检测服务 Space Conjunction Data Service (SCDS) ,当前飞行风险评估等级: 无高风险
轨道信息
数据来源 国际轨道数据 AOE轨道数据
星历时间 2026-09-11T15:06:47+0800
5小时前
查看轨道信息
2026-09-07T02:00:00+0800
4天前
查看轨道信息
半长轴 6993.397km 6993.447km
偏心率 0.0021632 0.0021595
轨道倾角 49.998° 49.994°
近地点辐角 31.745° 12.332°
升交点赤经 43.203° 64.298°
平近点角 328.478° 154.359°
近地点 600.131km 600.207km
远地点 630.389km 630.413km
周期 97.005分钟 97.006分钟
每日圈数 14.844671 14.844509
详细信息
使用方式:
暂无
2D轨道图
3D轨道图
轨道高度分析图
轨道倾角分析图
轨道综合分析图
查看轨道综合分析图
与全量物体交会距离演化趋势
与全量物体交会风险概率演化趋势